THORAD DELTA 1 DEB, 9695

Orbit data source: Space-Track

THORAD DELTA 1 DEB, 9695 is space debris in SSO originally from a launch on Fri, 15 Nov 1974 UTC launched from the Air Force Western Test Range (AFWTR). Debris objects in space refer to the collection of defunct objects orbiting the Earth. Examples of debris include non-operational satellites, rocket bodies, and fragments generated from explosions, collisions, or faulty payload assembly.

Loading next visibility...
Identifier
9695, 1974-089DU
Orbit
SSO
Country
Flag of USUS
Related business
Manufacturer
Unknown
Mission
Spacecraft
Bus & Motor
Unknown
Mass
Unknown
Launch date (UTC)
1974-11-15 (51 years ago)
Launch vehicle
Unknown
Launch site
Air Force Western Test Range (AFWTR)
Object type
Payload
Rocket body
Debris
Shape & HBR
Unknown shape, 0.1 m
Radar Cross Section
Small (<0.1 m²)

Expand to show TLE details & history
Last TLE update: 23 hours ago

TLE from 23 hours ago
0 THORAD DELTA 1 DEB
1 09695U 74089DU  25287.79376253  .00001791  00000-0  22065-2 0  9998
2 09695 102.9986 224.1438 0280806 111.0143 252.1258 13.52039958407163
Epoch: 2025-10-14T19:03Z
TLE epoch observation values (Epoch: 2025-10-14T19:03:01.082Z)
Latitude
-0.00003°
Longitude
-85.18779°
Altitude
1,136.829 km
Speed
7.25 km/s
True Right ascension
14h 56m 34s
True Declination
0° 00' 00"
Sunlit
Object was in daylight at epoch
Visualization orbit readout
Latitude
Unknown
Longitude
Unknown
Altitude
Unknown
Speed
Unknown
Apparent Right ascension
Unknown
Apparent Declination
Unknown
Sunlit
N/A
Visualization observer readout
Local Sidereal Time
12:59:52
Azimuth
Unknown
Elevation
Unknown
Doppler factor
Unknown
Orbital elements
Apogee altitude
1,271.186 km
Perigee altitude
853.325 km
Semi-major axis
7,440.392 km
Eccentricity
0.02808
Inclination
102.9986°
RAAN
224.1438°
Arg. of periapsis
111.0143°
True anomaly
249.09738°
Mean anomaly
252.1258°
Eccentric anomaly
250.60817°
Mean motion
3.38181 °/min
Orbital period
106.45 mins
BSTAR
0.0022065
Loading maneuver chart data...
Computing Atmospheric mass density...

Documentation

Showing up to 5 results
|